Regional Weather Roundup
Issued by NWS

Home | Current Version | Previous Version | Text Only | Print | Product List | Glossary On
Versions: 1 2 3 4 5 6 7 8 9 10 11 12 13 14 15 16 17 18 19 20 21 22 23 24 25 26 27 28 29 30 31 32 33 34 35 36 37 38 39 40 41 42 43 44 45 46 47 48 49 50
000
ASUS43 KLOT 050410
RWRIL

ILLINOIS REGIONAL WEATHER ROUNDUP
NATIONAL WEATHER SERVICE CHICAGO/ROMEOVILLE IL
1000 PM CST WED MAR 04 2015

NOTE: "FAIR" INDICATES FEW OR NO CLOUDS BELOW 12,000 FEET WITH NO
SIGNIFICANT WEATHER AND/OR OBSTRUCTIONS TO VISIBILITY.

* THESE STATIONS ARE NOT UNDER NWS QUALITY CONTROL. THEY ALSO MAY NOT
  REPORT WEATHER SUCH AS PRECIPITATION OR FOG.

ILZ001-002-007-009-015-016-024-050500-
NORTHWEST ILLINOIS

CITY           SKY/WX    TMP DP  RH WIND       PRES   REMARKS
MOLINE         MOCLDY    13   1  59 NW7       30.40R WCI   3
STERLING*      CLEAR      9   0  66 NW9       30.38R WCI  -5
SAVANNA*       PTCLDY    10  -1  61 NW5       30.39S WCI   1
$$

ILZ003-004-008-010-011-017-018-050500-
NORTH CENTRAL ILLINOIS

CITY           SKY/WX    TMP DP  RH WIND       PRES   REMARKS
ROCKFORD       PTCLDY     9  -3  58 NW13      30.37R WCI  -7
FREEPORT*      PTCLDY     7  -3  62 W9        30.38R WCI  -6
ROCHELLE*      CLEAR      9  -2  60 NW10      30.37R WCI  -5
DE KALB*       PTCLDY     9  -2  60 W13       30.34R WCI  -7
PERU*          PTCLDY    13   4  66 NW13      30.38R WCI  -1
$$

ILZ005-006-012>014-019>023-050500-
NORTHEAST ILLINOIS

CITY           SKY/WX    TMP DP  RH WIND       PRES   REMARKS
CHICAGO-OHARE  CLOUDY    13   0  56 NW15      30.32S WCI  -3
CHICAGO-MIDWAY MOCLDY    17   1  49 NW8       30.34R WCI   7
AURORA         PTCLDY    11   0  61 NW13      30.35R WCI  -4
LANSING*       PTCLDY    16   2  55 NW6       30.33R WCI   7
JOLIET*        PTCLDY    13  -1  55 NW6       30.36R WCI   4
WAUKEGAN       MOCLDY    11  -4  51 W5        30.33R WCI   3
DUPAGE AIRPORT PTCLDY    12  -1  56 NW14      30.32S WCI  -3
KANKAKEE*      MOCLDY    16   5  60 NW9       30.34R WCI   5
WHEELING       MOCLDY    14  -1  51 NW9       30.35S WCI   2
MORRIS*        PTCLDY    10   2  71 NW10      30.36R WCI  -4
ROMEOVILLE*    PTCLDY    13   0  57 NW8       30.35R WCI   1
NORTHERLY ISL    N/A     17   1  49 W13         N/A  WCI   4
$$

LMZ740>746-050500-
SOUTHERN LAKE MICHIGAN

STATION/POSITION SKY/WX   TEMP    WIND        PRES    VSBY  WAVE
                          AIR SEA DIR/SP/G                  HT/PER
                          (F)     (DEG/KT/KT) (MB)    (MI)  (FT/S)
WAUKEGAN HARBOR            14                   N/A
HARRISON CRIB              17     300/ 17/ 21   N/A
BURNHAM HARBOR             17     270/ 11/ 14   N/A
CALUMET HARBOR             17     260/  7/  9 1026.0R
MICHIGAN CITY              17     270/ 10/ 12   N/A
$$

ILZ025>027-034>036-040-047-049-050-058-095>099-050500-
WEST-CENTRAL ILLINOIS

CITY           SKY/WX    TMP DP  RH WIND       PRES   REMARKS
QUINCY         PTCLDY    18   6  59 CALM      30.38R
GALESBURG*     CLOUDY    12   5  71 N7        30.39R WCI   2
MACOMB*        CLOUDY    15  10  80 NW5       30.41R WCI   7
JACKSONVILLE*  CLOUDY    19   8  63 NW3       30.38S
PITTSFIELD*    PTCLDY    20   9  62 CALM      30.39R
$$

ILZ028>032-037-038-041>044-048-051>054-059>061-050500-
CENTRAL ILLINOIS

CITY           SKY/WX    TMP DP  RH WIND       PRES   REMARKS
PONTIAC        MOCLDY    15   8  72 NW9       30.37R WCI   3
BLOOMINGTON    MOCLDY    16   4  59 NW12      30.36R WCI   3
DECATUR        CLOUDY    18   5  57 NW12      30.36R WCI   5
PEORIA         MOCLDY    17   1  49 N7        30.38R WCI   8
LACON*         PTCLDY    13   1  57 NW8       30.38R WCI   2
LINCOLN*       MOCLDY    19   8  62 NW3       30.40R
SPRINGFIELD    CLOUDY    19   5  54 N7        30.37R WCI  10
TAYLORVILLE    CLOUDY    18   9  68 N10       30.35R WCI   6
$$

ILZ033-039-045-046-055>057-062-063-050500-
EAST-CENTRAL ILLINOIS

CITY           SKY/WX    TMP DP  RH WIND       PRES   REMARKS
CHAMPAIGN      CLOUDY    16   8  71 NW10      30.33R WCI   4
DANVILLE*      MOCLDY    16   4  60 NW17G23   30.28S WCI   0
RANTOUL*       CLOUDY    18  10  68 NW12      30.32S WCI   6
MATTOON        CLOUDY    18   7  62 N13       30.33R WCI   5
PARIS*         CLOUDY    18   6  60 N12G18    30.32R WCI   5
$$

ILZ079-100>102-050500-
SOUTHWEST ILLINOIS

CITY           SKY/WX    TMP DP  RH WIND       PRES   REMARKS
ALTON          CLOUDY    21   2  42 NW6       30.38F WCI  14
BELLEVILLE     CLOUDY    22   7  52 N13       30.37R WCI   9
CAHOKIA*       CLOUDY    23   5  46 N12       30.39R WCI  12
SPARTA*        CLOUDY    21   8  57 N12       30.38R WCI   9
$$

ILZ064>066-069>071-074>076-080>082-084>086-088>090-092>094-050500-
SOUTH-CENTRAL ILLINOIS

CITY           SKY/WX    TMP DP  RH WIND       PRES   REMARKS
CARBONDALE     CLOUDY    21   9  59 N10       30.35R WCI  10
CAIRO*         CLOUDY    22  19  91 N10       30.32R WCI  11
EFFINGHAM*     CLOUDY    20   3  48 NW7       30.37R WCI  11
MARION         CLOUDY    21  12  68 CALM      30.34R
MT. VERNON     CLOUDY    21   5  49 N8        30.35R WCI  12
CENTRALIA*     CLOUDY    21   6  53 N13       30.34S WCI   9
SALEM*         CLOUDY    22   7  52 N13       30.35S WCI  10
METROPOLIS*    CLOUDY    19  19 100 N14G20    30.31R WCI   6
$$

ILZ067-068-072-073-078-083-087-091-050500-
SOUTHEAST ILLINOIS

CITY           SKY/WX    TMP DP  RH WIND       PRES   REMARKS
LAWRENCEVILLE  CLOUDY    20   9  62 N15       30.33R WCI   6
FLORA*         CLOUDY    20   7  56 N10       30.35S WCI   9
FAIRFIELD*     CLOUDY    21   6  53 N8        30.33S WCI  11
HARRISBURG*    CLOUDY    21  12  68 N9        30.36R WCI  10
ROBINSON*      CLOUDY    20   7  59 N10       30.34R WCI   8
CARMI*         CLOUDY    22  14  69 CALM      30.33R
$$

ABBREVIATIONS USED IN REMARKS
   TC - TEMPERATURE IN CELSIUS
  WCI - WIND CHILL INDEX
   HX - HEAT INDEX
  VSB - VISIBILITY
$$



USA.gov is the U.S. government's official web portal to all federal, state and local government web resources and services.